Location: *
(30.4476°N, 114.3798°E)
Time: 02:29:33
(UTC+00:00)

Cosmos 1655 Rocket - Pass Details

Date: 09 April 2020
Orbit: 970 x 1006 km, 83.0° (Epoch: 31 May)

Event Time Altitude Azimuth Distance (km) Brightness Sun altitude
Rises 20:55:10 0° 177° (S) 3,715 6.9 -14.6°
Reaches altitude 10° 20:57:42 10° 174° (S) 2,765 6.2 -14.1°
Maximum altitude 21:04:00 68° 93° (E) 1,070 4.4 -12.8°
Drops below altitude 10° 21:10:17 10° 12° (NNE) 2,759 6.8 -11.5°
Sets 21:12:48 0° 10° (N) 3,705 7.4 -10.9°
